When you browse on this site, cookies collect data to enhance your experience and personalize the content and advertising you see.
Visit our Privacy Policy to learn more. By continuing to use the site, you agree to this use of cookies and data.

Meteo pe oră la Ali

Astăzi, 7 August, Vineri

Timp Temperatura Precipitaţii Vânt Presiune Umiditate
00:00 +25°C° 0 mm 1 m/s 710 mmHg 34%
01:00 +25°C° 0 mm 2 m/s 710 mmHg 34%
02:00 +24°C° 0 mm 2 m/s 710 mmHg 34%
03:00 +24°C° 0 mm 2 m/s 710 mmHg 34%
04:00 +24°C° 0 mm 2 m/s 710 mmHg 34%
05:00 +24°C° 0 mm 2 m/s 710 mmHg 35%
06:00 +27°C° 0 mm 2 m/s 710 mmHg 30%
07:00 +30°C° 0 mm 2 m/s 711 mmHg 25%
08:00 +34°C° 0 mm 3 m/s 711 mmHg 20%
09:00 +35°C° 0 mm 3 m/s 711 mmHg 18%
10:00 +37°C° 0 mm 3 m/s 711 mmHg 16%
11:00 +38°C° 0 mm 4 m/s 711 mmHg 13%
12:00 +40°C° 0 mm 4 m/s 710 mmHg 13%
13:00 +40°C° 0 mm 4 m/s 710 mmHg 13%
14:00 +41°C° 0 mm 5 m/s 710 mmHg 13%
15:00 +40°C° 0 mm 5 m/s 710 mmHg 13%
16:00 +39°C° 0 mm 5 m/s 709 mmHg 14%
17:00 +37°C° 0 mm 3 m/s 709 mmHg 14%
18:00 +34°C° 0 mm 3 m/s 709 mmHg 17%
19:00 +31°C° 0 mm 3 m/s 709 mmHg 20%
20:00 +28°C° 0 mm 3 m/s 709 mmHg 22%
21:00 +27°C° 0 mm 2 m/s 709 mmHg 25%
22:00 +25°C° 0 mm 2 m/s 709 mmHg 27%
23:00 +24°C° 0 mm 2 m/s 708 mmHg 29%

Mâine, 8 August, Sâmbătă

Timp Temperatura Precipitaţii Vânt Presiune Umiditate
00:00 +23°C° 0 mm 1 m/s 708 mmHg 29%
01:00 +23°C° 0 mm 1 m/s 708 mmHg 30%
02:00 +23°C° 0 mm 1 m/s 708 mmHg 31%
03:00 +23°C° 0 mm 1 m/s 708 mmHg 30%
04:00 +23°C° 0 mm 1 m/s 707 mmHg 30%
05:00 +22°C° 0 mm 1 m/s 707 mmHg 30%
06:00 +26°C° 0 mm 2 m/s 708 mmHg 26%
07:00 +29°C° 0 mm 2 m/s 708 mmHg 21%
08:00 +33°C° 0 mm 3 m/s 709 mmHg 17%
09:00 +34°C° 0 mm 3 m/s 709 mmHg 16%
10:00 +36°C° 0 mm 3 m/s 709 mmHg 15%
11:00 +37°C° 0 mm 3 m/s 709 mmHg 14%
12:00 +38°C° 0 mm 3 m/s 708 mmHg 13%
13:00 +39°C° 0 mm 3 m/s 708 mmHg 13%
14:00 +40°C° 0 mm 2 m/s 708 mmHg 12%
15:00 +40°C° 0 mm 3 m/s 708 mmHg 13%
16:00 +40°C° 0 mm 3 m/s 708 mmHg 13%
17:00 +41°C° 0 mm 4 m/s 708 mmHg 13%
18:00 +37°C° 0 mm 3 m/s 708 mmHg 19%
19:00 +33°C° 0 mm 3 m/s 707 mmHg 25%
20:00 +29°C° 0 mm 3 m/s 707 mmHg 30%
21:00 +28°C° 0 mm 3 m/s 707 mmHg 32%
22:00 +28°C° 0 mm 3 m/s 706 mmHg 33%
23:00 +27°C° 0 mm 2 m/s 706 mmHg 35%

Poimâine, 9 August, Duminică

Timp Temperatura Precipitaţii Vânt Presiune Umiditate
00:00 +28°C° 0 mm 4 m/s 706 mmHg 33%
01:00 +29°C° 0 mm 5 m/s 706 mmHg 31%
02:00 +29°C° 0 mm 6 m/s 706 mmHg 29%
03:00 +28°C° 0 mm 6 m/s 706 mmHg 33%
04:00 +28°C° 0 mm 5 m/s 706 mmHg 38%
05:00 +27°C° 0 mm 5 m/s 706 mmHg 42%
06:00 +27°C° 0.1 mm 5 m/s 707 mmHg 42%
07:00 +28°C° 0.1 mm 5 m/s 707 mmHg 41%
08:00 +28°C° 0.1 mm 5 m/s 708 mmHg 41%
09:00 +29°C° 0.1 mm 5 m/s 708 mmHg 38%
10:00 +30°C° 0.1 mm 4 m/s 708 mmHg 34%
11:00 +31°C° 0.1 mm 3 m/s 709 mmHg 31%
12:00 +34°C° 0 mm 2 m/s 709 mmHg 28%
13:00 +35°C° 0 mm 2 m/s 709 mmHg 24%
14:00 +36°C° 0 mm 1 m/s 709 mmHg 21%
15:00 +36°C° 0 mm 2 m/s 709 mmHg 21%
16:00 +36°C° 0 mm 3 m/s 708 mmHg 21%
17:00 +36°C° 0 mm 3 m/s 708 mmHg 22%
18:00 +34°C° 0 mm 3 m/s 708 mmHg 25%
19:00 +31°C° 0 mm 3 m/s 708 mmHg 29%
20:00 +29°C° 0 mm 3 m/s 708 mmHg 32%
21:00 +28°C° 0.2 mm 4 m/s 708 mmHg 39%
22:00 +26°C° 0.2 mm 6 m/s 708 mmHg 47%
23:00 +24°C° 0.2 mm 8 m/s 707 mmHg 54%

10 August, Luni

Timp Temperatura Precipitaţii Vânt Presiune Umiditate
00:00 +23°C° 0.2 mm 6 m/s 707 mmHg 58%
01:00 +22°C° 0.2 mm 5 m/s 707 mmHg 62%
02:00 +22°C° 0.2 mm 4 m/s 707 mmHg 67%
03:00 +21°C° 0.1 mm 3 m/s 707 mmHg 67%
04:00 +21°C° 0.1 mm 3 m/s 707 mmHg 68%
05:00 +20°C° 0.1 mm 3 m/s 707 mmHg 69%
06:00 +22°C° 0 mm 3 m/s 707 mmHg 62%
07:00 +25°C° 0 mm 3 m/s 707 mmHg 55%
08:00 +27°C° 0 mm 3 m/s 707 mmHg 49%
09:00 +30°C° 0 mm 3 m/s 707 mmHg 40%
10:00 +33°C° 0 mm 3 m/s 707 mmHg 31%
11:00 +36°C° 0 mm 2 m/s 708 mmHg 23%
12:00 +37°C° 0 mm 3 m/s 707 mmHg 21%
13:00 +37°C° 0 mm 3 m/s 707 mmHg 19%
14:00 +38°C° 0 mm 3 m/s 707 mmHg 17%
15:00 +38°C° 0 mm 3 m/s 707 mmHg 17%
16:00 +38°C° 0 mm 3 m/s 707 mmHg 17%
17:00 +37°C° 0 mm 2 m/s 707 mmHg 18%
18:00 +35°C° 0 mm 2 m/s 707 mmHg 22%
19:00 +31°C° 0 mm 2 m/s 706 mmHg 26%
20:00 +28°C° 0 mm 2 m/s 706 mmHg 30%
21:00 +27°C° 0.1 mm 3 m/s 706 mmHg 35%
22:00 +26°C° 0.1 mm 3 m/s 706 mmHg 41%
23:00 +25°C° 0.1 mm 4 m/s 706 mmHg 46%

11 August, Marţi

Timp Temperatura Precipitaţii Vânt Presiune Umiditate
00:00 +25°C° 0.1 mm 3 m/s 705 mmHg 47%
01:00 +24°C° 0.1 mm 3 m/s 705 mmHg 47%
02:00 +24°C° 0.1 mm 2 m/s 705 mmHg 48%
03:00 +23°C° 0 mm 2 m/s 705 mmHg 48%
04:00 +23°C° 0 mm 1 m/s 705 mmHg 48%
05:00 +22°C° 0 mm 1 m/s 705 mmHg 49%
06:00 +25°C° 0 mm 1 m/s 706 mmHg 42%
07:00 +28°C° 0 mm 1 m/s 706 mmHg 35%
08:00 +31°C° 0 mm 1 m/s 707 mmHg 29%
09:00 +34°C° 0 mm 2 m/s 707 mmHg 26%
10:00 +35°C° 0 mm 3 m/s 707 mmHg 22%
11:00 +37°C° 0 mm 4 m/s 707 mmHg 19%
12:00 +38°C° 0 mm 4 m/s 707 mmHg 18%
13:00 +38°C° 0 mm 4 m/s 707 mmHg 18%
14:00 +40°C° 0 mm 5 m/s 707 mmHg 17%
15:00 +37°C° 0.1 mm 5 m/s 707 mmHg 20%
16:00 +35°C° 0.1 mm 5 m/s 706 mmHg 24%
17:00 +33°C° 0.1 mm 4 m/s 706 mmHg 28%
18:00 +30°C° 0.3 mm 4 m/s 706 mmHg 35%
19:00 +28°C° 0.3 mm 3 m/s 707 mmHg 42%
20:00 +25°C° 0.3 mm 3 m/s 707 mmHg 50%
21:00 +25°C° 0 mm 2 m/s 707 mmHg 49%
22:00 +25°C° 0 mm 2 m/s 707 mmHg 49%
23:00 +24°C° 0 mm 1 m/s 707 mmHg 49%

12 August, Miercuri

Timp Temperatura Precipitaţii Vânt Presiune Umiditate
00:00 +23°C° 0 mm 1 m/s 707 mmHg 47%
01:00 +23°C° 0 mm 1 m/s 706 mmHg 45%
02:00 +21°C° 0 mm 2 m/s 706 mmHg 43%
03:00 +22°C° 0 mm 1 m/s 706 mmHg 43%
04:00 +21°C° 0 mm 1 m/s 706 mmHg 44%
05:00 +21°C° 0 mm 1 m/s 706 mmHg 44%
06:00 +23°C° 0 mm 1 m/s 707 mmHg 38%
07:00 +25°C° 0 mm 1 m/s 707 mmHg 32%
08:00 +28°C° 0 mm 1 m/s 708 mmHg 26%
09:00 +29°C° 0 mm 1 m/s 708 mmHg 23%
10:00 +31°C° 0 mm 2 m/s 708 mmHg 21%
11:00 +32°C° 0 mm 2 m/s 708 mmHg 18%
12:00 +34°C° 0 mm 2 m/s 708 mmHg 18%
13:00 +35°C° 0 mm 3 m/s 708 mmHg 17%
14:00 +36°C° 0 mm 3 m/s 708 mmHg 16%
15:00 +36°C° 0 mm 3 m/s 708 mmHg 16%
16:00 +36°C° 0 mm 4 m/s 708 mmHg 16%
17:00 +36°C° 0 mm 4 m/s 708 mmHg 16%
18:00 +33°C° 0 mm 3 m/s 709 mmHg 19%
19:00 +30°C° 0 mm 3 m/s 709 mmHg 21%
20:00 +27°C° 0 mm 3 m/s 709 mmHg 23%
21:00 +26°C° 0 mm 2 m/s 709 mmHg 25%
22:00 +24°C° 0 mm 2 m/s 709 mmHg 27%
23:00 +22°C° 0 mm 1 m/s 708 mmHg 29%
Arată mai mult